Flag for Germany Weather past 2 weeks in Görlitz, Saxony, Germany

Now
42 °F

Passing clouds.


Feels Like: 34 °F
Forecast: 33 / 42 °F
Wind: 15 mph from West

Location: Goerlitz

Current Time: Apr 1, 2015 at 12:31:52 AM

Latest Report: Mar 31, 2015 at 11:00 PM


Visibility: 28 mi

Pressure: 29.44 "Hg

Humidity: 61%

Dew point: 29 °F

Location of GörlitzLocation

Historic Weather in Görlitz — Graph

°F

Görlitz temperature yesterday

Maximum temperature yesterday: 53 °F (at 4:00 PM)
Minimum temperature yesterday: 33 °F (at 8:00 AM)
Average temperature yesterday: 41 °F

Past Weeks' High & Low Weather Summary

 TemperatureHumidityPressure
High63 °F (Mar 25, 4:00 PM)100% (Mar 27, 3:00 AM)30.47 "Hg (Mar 27, 3:00 AM)
Low26 °F (Mar 20, 6:00 AM)32% (Mar 17, 3:00 PM)29.15 "Hg (Mar 31, 11:00 AM)
Average43 °F70%29.97 "Hg
* Reported Mar 16 9:00 PM — Mar 31 10:00 PM, Görlitz, Weather by CustomWeather, © 2015

Note: Actual official high and low records may vary slightly from our data, if they occured in-between our weather recording intervals... More about our weather records

Advertising

Görlitz weather history for previous 24 hours

 ConditionsComfort  
Time TempWeatherWind HumidityBarometerVisibility
10:00 PM
Tue, Mar 31
42 °FPassing clouds.16 mph57%29.47 "Hg31 mi
9:00 PM44 °FPassing clouds.15 mph59%29.41 "Hg31 mi
8:00 PM45 °FOvercast.15 mph66%29.38 "Hg31 mi
7:00 PM44 °FSprinkles. Overcast.16 mph80%29.35 "Hg31 mi
6:00 PM44 °FSprinkles. Overcast.18 mph74%29.29 "Hg18 mi
5:00 PM50 °FScattered clouds.16 mph64%29.21 "Hg31 mi
4:00 PM53 °FScattered clouds.15 mph54%29.18 "Hg31 mi
3:00 PM50 °FPartly sunny.12 mph72%29.21 "Hg28 mi
2:00 PM49 °FPartly sunny.14 mph76%29.21 "Hg19 mi
1:00 PM45 °FLight rain. Overcast.10 mph83%29.21 "Hg16 mi
12:00 PM40 °FLight rain. Overcast.10 mph94%29.18 "Hg16 mi
11:00 AM40 °FLight rain. Overcast.15 mph88%29.15 "Hg25 mi
10:00 AM35 °FLight rain. Low clouds.17 mph97%29.21 "Hg4 mi
9:00 AM33 °FSnow. Low clouds.10 mph100%29.29 "Hg2 mi
8:00 AM33 °FSnow. Low clouds.9 mph99%29.38 "Hg2 mi
7:00 AM35 °FLight rain. Overcast.9 mph87%29.47 "Hg9 mi
6:00 AM37 °FOvercast.8 mph76%29.56 "Hg28 mi
5:00 AM37 °FOvercast.7 mph74%29.63 "Hg28 mi
4:00 AM36 °FOvercast.6 mph81%29.70 "Hg3 mi
3:00 AM36 °FPassing clouds.5 mph79%29.72 "Hg31 mi
2:00 AM37 °FPassing clouds.6 mph79%29.74 "Hg34 mi
1:00 AM37 °FPassing clouds.7 mph80%29.75 "Hg31 mi
12:00 AM38 °FClear.10 mph75%29.74 "Hg34 mi
Weather by CustomWeather, © 2015

See weather overviewHow to use our weather pages